Weather reports worldwide

Advertisment
Le Touquet, France (7003): temperature & dewpoint: 10.07.2018 18:00:00 - 16.07.2018 18:00:00 (CEST)Le Touquet, France (7003): temperature 5cm: 10.07.2018 18:00:00 - 16.07.2018 18:00:00 (CEST)Le Touquet, France (7003): wind speed & gusts: 10.07.2018 18:00:00 - 16.07.2018 18:00:00 (CEST)Le Touquet, France (7003): wind direction: 10.07.2018 18:00:00 - 16.07.2018 18:00:00 (CEST)Le Touquet, France (7003): reduced air pressure: 10.07.2018 18:00:00 - 16.07.2018 18:00:00 (CEST)Le Touquet, France (7003): visibility: 10.07.2018 18:00:00 - 16.07.2018 18:00:00 (CEST)Le Touquet, France (7003): sunshine duration: 10.07.2018 18:00:00 - 16.07.2018 18:00:00 (CEST)Le Touquet, France (7003): precipitation: 10.07.2018 18:00:00 - 16.07.2018 18:00:00 (CEST)
Date & Time tt [°C] td [°C] tt 5cm [°C] ff [km/h] ff [kn] fx [km/h] fx [kn] dd ppp [hPa] vv [km] sd [min] rr [mm]
16.07.2018 18:00:00 21,2 14,1 25,0 12 7 24 13 W 1013,8 20 60 0,0
16.07.2018 17:00:00 22,5 14,3 29,1 14 7 24 13 W 1013,6 21 57 0,0
16.07.2018 16:00:00 23,0 14,6 31,1 15 8 23 12 W 1013,9 20 50 0,0
16.07.2018 15:00:00 22,9 14,5 33,0 14 8 24 13 W 1014,0 20 60 0,0
16.07.2018 14:00:00 24,3 14,7 32,7 11 6 24 13 WSW 1014,0 37 56 0,0
16.07.2018 13:00:00 24,4 15,1 27,9 10 5 16 9 W 1014,1 40 39 0,0
16.07.2018 12:00:00 22,1 14,7 26,3 8 5 17 9 SW 1014,4 20 29 0,0
16.07.2018 11:00:00 21,4 15,9 26,4 10 5 15 8 W 1014,1 19 23 0,0
16.07.2018 10:00:00 22,1 17,2 25,5 2 1 9 5 SW 1013,7 29 55 0,0
16.07.2018 09:00:00 20,1 16,5 18,7 6 4 11 6 WSW 1014,0 20 60 0,0
16.07.2018 08:00:00 16,3 14,7 12,0 6 4 10 6 SE 1013,9 9 49 0,0
16.07.2018 07:00:00 13,3 12,4 10,7 3 2 9 5 ESE 1014,0 7 0 0,0
16.07.2018 06:00:00 14,0 12,2 10,0 4 2 6 4 SSE 1014,0 13 0 0,0
16.07.2018 05:00:00 14,9 13,1 10,9 2 1 7 4 S 1014,2 13 0 0,0
16.07.2018 04:00:00 15,4 13,6 11,6 4 2 8 5 SSE 1014,5 15 0 0,0
16.07.2018 03:00:00 17,3 14,9 13,2 7 4 8 5 NW 1015,0 12 0 0,0
16.07.2018 02:00:00 16,1 13,9 12,5 4 2 8 4 NNW 1015,3 13 0 0,0
16.07.2018 01:00:00 17,2 14,1 13,4 6 3 8 4 NW 1015,4 15 0 0,0
16.07.2018 00:00:00 16,6 14,6 14,3 6 4 10 5 NW 1015,6 15 0 0,0
15.07.2018 23:00:00 18,1 15,0 14,9 6 3 14 8 NW 1015,5 17 0 0,0
15.07.2018 22:00:00 19,4 14,6 17,0 9 5 14 8 NW 1015,2 17 23 0,0
15.07.2018 21:00:00 20,2 15,4 19,6 13 7 23 13 NW 1014,8 16 60 0,0
15.07.2018 20:00:00 21,6 15,7 22,7 18 10 23 12 NW 1014,7 16 60 0,0
15.07.2018 19:00:00 22,5 15,6 25,2 19 10 26 14 NW 1014,8 16 52 0,0
15.07.2018 18:00:00 24,2 14,9 28,3 16 9 28 15 NW 1014,9 16 60 0,0
15.07.2018 17:00:00 23,5 15,3 29,5 19 10 28 15 NW 1015,3 17 60 0,0
15.07.2018 16:00:00 24,4 14,2 31,5 17 9 24 13 NW 1015,6 19 60 0,0
15.07.2018 15:00:00 25,7 13,9 31,2 17 9 24 13 NNW 1015,8 27 60 0,0
15.07.2018 14:00:00 26,0 13,8 33,0 14 8 23 12 NW 1016,3 20 60 0,0
15.07.2018 13:00:00 26,7 13,1 34,6 13 7 21 12 NW 1016,5 36 60 0,0
15.07.2018 12:00:00 26,0 14,1 33,6 10 5 16 8 N 1016,8 19 60 0,0
15.07.2018 11:00:00 24,8 14,0 30,9 6 3 10 5 NNE 1016,9 13 60 0,0
15.07.2018 10:00:00 24,0 13,8 26,7 3 1 6 3 NE 1017,0 29 60 0,0
15.07.2018 09:00:00 22,6 14,7 20,5 0 0 3 2 N 1017,2 19 60 0,0
15.07.2018 08:00:00 16,7 13,8 13,1 2 1 7 4 SSE 1017,3 8 60 0,0
15.07.2018 07:00:00 13,6 12,2 9,7 4 2 9 5 SE 1016,9 14 28 0,0
15.07.2018 06:00:00 13,5 12,6 9,2 5 3 9 5 SSE 1017,1 11 0 0,0
15.07.2018 05:00:00 14,5 12,5 9,2 0 0 4 2 N 1017,4 19 0 0,0
15.07.2018 04:00:00 15,3 13,0 11,1 3 1 10 5 WSW 1017,7 16 0 0,0
15.07.2018 03:00:00 17,4 13,3 12,5 6 3 10 5 ESE 1017,8 21 0 0,0
15.07.2018 02:00:00 17,8 13,1 13,5 8 5 12 7 SE 1018,2 28 0 0,0
15.07.2018 01:00:00 17,5 12,8 13,7 8 4 17 9 ESE 1018,3 34 0 0,0
15.07.2018 00:00:00 19,2 12,9 15,7 10 5 16 9 E 1018,3 19 0 0,0
14.07.2018 23:00:00 19,7 14,1 14,5 8 4 11 6 E 1018,3 36 0 0,0
14.07.2018 22:00:00 21,4 13,8 18,4 5 3 14 7 NNW 1018,2 53 23 0,0
14.07.2018 21:00:00 23,2 14,5 22,2 10 5 19 10 N 1018,0 19 56 0,0
14.07.2018 20:00:00 25,2 14,9 25,7 13 7 26 14 NNE 1018,0 23 60 0,0
14.07.2018 19:00:00 25,6 15,3 28,0 17 9 31 17 NW 1018,2 13 60 0,0
14.07.2018 18:00:00 23,9 16,2 28,3 24 13 35 19 NW 1018,6 12 60 0,0
14.07.2018 17:00:00 23,6 16,6 28,6 25 14 33 18 NW 1018,9 13 60 0,0
14.07.2018 16:00:00 23,2 13,7 29,2 26 14 34 19 NNW 1019,4 14 60 0,0
14.07.2018 15:00:00 22,7 15,8 27,9 25 14 33 18 NW 1019,8 15 60 0,0
14.07.2018 14:00:00 21,8 16,7 27,1 23 12 31 17 NNW 1020,3 17 60 0,0
14.07.2018 13:00:00 22,7 15,8 29,4 16 9 24 13 NW 1020,4 17 60 0,0
14.07.2018 12:00:00 22,3 15,2 29,9 14 7 21 11 NW 1020,7 17 60 0,0
14.07.2018 11:00:00 22,4 13,7 27,1 6 3 13 7 E 1021,1 34 60 0,0
14.07.2018 10:00:00 20,6 14,3 22,0 10 5 16 9 E 1021,4 21 60 0,0
14.07.2018 09:00:00 18,4 14,9 18,4 8 4 13 7 ENE 1021,5 15 60 0,0
14.07.2018 08:00:00 15,7 14,6 12,9 0 0 5 3 N 1021,3 8 45 0,0
14.07.2018 07:00:00 13,7 12,9 8,8 5 3 9 5 SSE 1021,3 7 11 0,0
14.07.2018 06:00:00 13,3 12,5 7,9 6 3 9 5 SE 1021,2 9 0 0,2
14.07.2018 05:00:00 12,7 11,8 7,9 4 2 10 5 NNW 1021,4 7 0 0,0
14.07.2018 04:00:00 13,6 12,5 9,6 5 3 9 5 ESE 1021,5 9 0 0,0
14.07.2018 03:00:00 14,1 12,8 9,9 6 4 14 8 ESE 1021,8 12 0 0,0
14.07.2018 02:00:00 14,7 12,9 9,5 3 2 7 4 SE 1021,8 17 0 0,0
14.07.2018 01:00:00 14,9 12,9 10,7 5 3 11 6 E 1021,7 19 0 0,0
14.07.2018 00:00:00 15,7 12,8 11,1 3 1 9 5 ENE 1021,8 20 0 0,0
13.07.2018 23:00:00 16,9 13,2 11,7 4 2 12 7 ENE 1021,6 29 0 0,0
13.07.2018 22:00:00 18,2 13,7 16,1 7 4 17 9 N 1021,1 35 14 0,0
13.07.2018 21:00:00 21,2 13,9 20,8 11 6 19 10 ENE 1020,8 31 60 0,0
13.07.2018 20:00:00 22,4 13,5 22,8 11 6 23 12 NE 1020,4 19 37 0,0
13.07.2018 19:00:00 23,7 13,6 26,1 16 9 25 14 NNE 1020,3 32 60 0,0
13.07.2018 18:00:00 24,3 14,7 27,8 14 8 29 16 NE 1020,7 35 60 0,0
13.07.2018 17:00:00 24,0 15,2 27,0 13 7 29 16 NNE 1021,0 19 27 0,0
13.07.2018 16:00:00 21,6 16,3 25,8 23 12 33 18 NW 1021,6 34 3 0,0
13.07.2018 15:00:00 22,0 15,6 26,9 22 12 28 15 NW 1021,6 17 31 0,0
13.07.2018 14:00:00 22,5 14,1 27,3 8 4 17 9 N 1021,9 18 27 0,0
13.07.2018 13:00:00 21,9 15,3 23,9 9 5 16 9 NE 1022,2 16 17 0,0
13.07.2018 12:00:00 20,1 14,9 21,3 5 3 14 8 E 1022,4 10 0 0,0
13.07.2018 11:00:00 19,1 14,6 20,8 10 5 17 9 ENE 1022,3 15 0 0,0
13.07.2018 10:00:00 18,1 14,4 19,2 11 6 19 10 ENE 1022,4 14 0 0,0
13.07.2018 09:00:00 17,3 14,2 17,4 7 4 23 12 NE 1022,4 13 1 0,0
13.07.2018 08:00:00 16,3 14,1 15,0 9 5 15 8 NNE 1022,0 12 3 0,0
13.07.2018 07:00:00 15,3 14,0 13,1 4 2 8 4 NNW 1021,9 7 7 0,0
13.07.2018 06:00:00 15,2 13,7 13,2 5 3 9 5 ENE 1022,1 6 0 0,0
13.07.2018 05:00:00 15,2 13,9 13,6 3 2 10 6 NE 1022,0 6 0 0,0
13.07.2018 04:00:00 14,9 13,6 12,9 5 3 8 4 NNW 1022,0 9 0 0,0
13.07.2018 03:00:00 15,3 13,7 12,4 5 3 11 6 E 1021,9 12 0 0,0
13.07.2018 02:00:00 15,2 13,2 12,6 0 0 9 5 N 1021,8 14 0 0,0
13.07.2018 01:00:00 15,3 13,3 13,4 4 2 10 6 ESE 1021,7 15 0 0,0
13.07.2018 00:00:00 15,6 13,1 13,5 5 3 13 7 ENE 1021,8 19 0 0,0
12.07.2018 23:00:00 16,5 13,2 15,5 9 5 16 9 ENE 1021,7 27 0 0,0
12.07.2018 22:00:00 17,4 13,9 16,6 8 4 14 8 NE 1021,4 26 0 0,0
12.07.2018 21:00:00 18,4 14,3 18,4 10 5 18 10 NNE 1021,2 27 0 0,0
12.07.2018 20:00:00 19,2 14,5 20,1 12 7 22 12 NE 1021,1 30 0 0,0
12.07.2018 19:00:00 19,9 14,3 21,2 16 9 27 15 NNE 1020,8 33 34 0,0
12.07.2018 18:00:00 21,7 14,8 23,5 16 9 29 15 NNE 1020,8 10 52 0,0
12.07.2018 17:00:00 21,5 15,1 23,1 11 6 21 12 NE 1021,1 15 21 0,0
12.07.2018 16:00:00 19,6 14,4 22,6 12 6 19 10 NE 1021,8 15 0 0,0
12.07.2018 15:00:00 19,3 14,3 21,0 8 5 21 12 NE 1021,8 18 0 0,0
12.07.2018 14:00:00 18,3 13,8 19,9 8 4 20 11 N 1021,9 20 0 0,0
12.07.2018 13:00:00 17,8 13,5 18,8 11 6 20 11 NNE 1022,0 16 0 0,0
12.07.2018 12:00:00 17,5 13,4 19,6 11 6 22 12 NE 1021,9 23 0 0,0
12.07.2018 11:00:00 17,8 13,3 20,0 11 6 20 11 NE 1021,6 25 5 0,0
12.07.2018 10:00:00 17,0 13,5 18,1 9 5 22 12 NE 1021,6 20 0 0,0
12.07.2018 09:00:00 16,1 13,2 15,5 11 6 19 11 NE 1021,5 19 0 0,0
12.07.2018 08:00:00 15,2 13,4 14,3 10 5 16 9 NNE 1021,0 15 0 0,0
12.07.2018 07:00:00 14,6 13,6 12,7 6 3 13 7 N 1020,8 8 0 0,0
12.07.2018 06:00:00 13,6 13,0 9,2 0 0 8 5 N 1020,6 10 0 0,0
12.07.2018 05:00:00 12,2 11,7 7,1 2 1 7 4 NE 1020,5 10 0 0,0
12.07.2018 04:00:00 12,2 11,6 6,7 0 0 4 2 N 1020,6 8 0 0,0
12.07.2018 03:00:00 12,1 11,5 6,6 0 0 7 4 N 1020,7 10 0 0,0
12.07.2018 02:00:00 12,9 11,8 6,5 4 2 8 4 WNW 1020,6 11 0 0,0
12.07.2018 01:00:00 13,4 12,3 6,6 4 2 5 3 - 1020,7 10 0 0,0
12.07.2018 00:00:00 13,1 11,7 7,6 3 1 10 5 N 1021,0 18 0 0,0
11.07.2018 23:00:00 14,6 12,3 11,3 6 4 16 9 NNW 1021,0 20 0 0,0
11.07.2018 22:00:00 16,2 12,7 14,9 10 5 20 11 NNE 1020,6 29 19 0,0
11.07.2018 21:00:00 17,8 12,3 17,0 10 6 24 13 NNE 1020,3 32 51 0,0
11.07.2018 20:00:00 19,2 12,7 20,0 14 7 27 15 NNE 1020,3 18 60 0,0
11.07.2018 19:00:00 19,4 11,7 20,0 19 11 27 15 N 1020,2 53 18 0,0
11.07.2018 18:00:00 18,9 13,3 20,2 16 9 35 19 N 1020,5 30 9 0,0
11.07.2018 17:00:00 20,0 14,6 21,7 27 15 37 20 NNW 1020,5 19 43 0,0
11.07.2018 16:00:00 18,9 14,2 19,9 29 16 39 21 NW 1020,8 20 18 0,0
11.07.2018 15:00:00 17,9 14,2 20,5 22 12 33 18 NNW 1021,2 20 0 0,0
11.07.2018 14:00:00 17,8 14,1 18,9 20 11 35 19 N 1021,4 34 0 0,0
11.07.2018 13:00:00 16,7 14,0 18,6 18 10 29 16 N 1021,4 11 1 0,0
11.07.2018 12:00:00 17,3 14,4 17,3 19 10 31 17 N 1021,3 21 0 0,0
11.07.2018 11:00:00 16,8 14,1 17,5 16 9 28 15 N 1021,3 18 0 0,0
11.07.2018 10:00:00 17,3 13,2 18,4 14 7 31 17 N 1021,3 24 21 0,0
11.07.2018 09:00:00 18,1 14,0 17,3 19 10 31 17 N 1021,1 10 52 0,0
11.07.2018 08:00:00 16,4 13,9 15,3 16 8 25 13 N 1021,1 11 34 0,0
11.07.2018 07:00:00 15,3 13,5 14,8 7 4 18 10 N 1020,9 18 25 0,0
11.07.2018 06:00:00 15,6 13,4 15,1 12 6 21 12 N 1020,7 20 0 0,0
11.07.2018 05:00:00 15,6 13,1 15,3 11 6 25 14 N 1021,0 29 0 0,0
11.07.2018 04:00:00 15,7 12,6 15,3 17 9 26 14 N 1021,0 15 0 0,0
11.07.2018 03:00:00 16,0 12,5 15,5 16 8 23 12 N 1021,2 30 0 0,0
11.07.2018 02:00:00 16,0 12,4 13,8 13 7 23 12 NNE 1021,5 34 0 0,0
11.07.2018 01:00:00 14,7 13,1 12,4 6 3 15 8 N 1021,9 26 0 0,0
11.07.2018 00:00:00 15,6 13,1 9,9 11 6 16 8 NNE 1022,3 29 0 0,0
10.07.2018 23:00:00 14,1 12,0 - 5 3 13 7 N 1022,3 19 - -
10.07.2018 22:00:00 16,2 12,4 - 11 6 21 11 NNE 1022,1 45 - 0,0
10.07.2018 21:00:00 17,7 12,4 17,3 12 7 29 16 NNE 1021,9 36 24 0,0
10.07.2018 20:00:00 18,5 11,6 19,3 16 9 26 14 NNE 1021,8 24 25 0,0
10.07.2018 19:00:00 18,6 11,2 20,2 18 10 29 16 NNE 1021,8 47 25 0,0
10.07.2018 18:00:00 20,0 11,7 20,4 16 9 26 14 NE 1022,0 60 16 0,0

tt = temperature
td = dewpoint
tt 5cm = temperature 5cm
ff = wind speed
fx = gusts
dd = wind direction
ppp = reduced air pressure
vv = visibility
sd = sunshine duration
rr = precipitation

Next stations